Regional Weather Roundup
Issued by NWS

Home | Current Version | Previous Version | Text Only | Print | Product List | Glossary Off
Versions: 1 2 3 4 5 6 7 8 9 10 11 12 13 14 15 16 17 18 19 20 21 22 23 24 25 26 27 28 29 30 31 32 33 34 35 36 37 38 39 40 41 42 43 44 45 46 47 48 49 50

000
ASUS45 KPSR 191210
RWRAZ

ARIZONA REGIONAL HOURLY WEATHER ROUNDUP
NATIONAL WEATHER SERVICE PHOENIX AZ
500 AM MST SAT APR 19 2014

NOTE: FAIR INDICATES FEW OR NO CLOUDS BELOW 12,000 FEET WITH NO
SIGNIFICANT WEATHER AND/OR OBSTRUCTIONS TO VISIBILITY.

AZZ001>003-036-191300-
NORTHWEST ARIZONA

CITY           SKY/WX    TMP DP  RH WIND       PRES   REMARKS
BULLHEAD CITY  MOCLDY    68  45  42 E5        29.90S
KINGMAN        CLOUDY    55  47  74 CALM      29.98F
6HR MIN TEMP:  55; 6HR MAX TEMP:  59; 6HR PCP:  0.01;

$$

AZZ004>008-015-016-018-191300-
NORTH CENTRAL ARIZONA

CITY           SKY/WX    TMP DP  RH WIND       PRES   REMARKS
GRAND CANYON   CLOUDY    36  36 100 CALM      30.10F
6HR MIN TEMP:  36; 6HR MAX TEMP:  45; 6HR PCP:  0.01;

WILLIAMS       CLEAR     32  32 100 SE7       30.16S WCI  26
PRESCOTT       PTCLDY    41  37  86 S8        30.03S
6HR MIN TEMP:  41; 6HR MAX TEMP:  49;

FLAGSTAFF      CLEAR     30  28  92 CALM      30.10S
6HR MIN TEMP:  30; 6HR MAX TEMP:  42;

PAYSON         PTCLDY    48  37  66 CALM      30.05S
PAGE           CLOUDY    57  39  51 SE5       30.03R
6HR MIN TEMP:  57; 6HR MAX TEMP:  62;

$$

AZZ009>014-017-191300-
NORTHEAST ARIZONA

CITY           SKY/WX    TMP DP  RH WIND       PRES   REMARKS
WINSLOW        CLEAR     36  32  85 W5        30.07R WCI  32
6HR MIN TEMP:  36; 6HR MAX TEMP:  53;

SAINT JOHNS    PTCLDY    38  37  97 CALM      30.08R
6HR MIN TEMP:  36; 6HR MAX TEMP:  50;

WINDOW ROCK    MOCLDY    33  28  81 S3        30.13F
6HR MIN TEMP:  32; 6HR MAX TEMP:  48;

SHOW LOW       PTCLDY    36  30  80 S3        30.12S
$$

AZZ023-191300-
GREATER PHOENIX AREA

CITY           SKY/WX    TMP DP  RH WIND       PRES   REMARKS
PHOENIX        PTCLDY    67  45  45 E3        29.86S
6HR MIN TEMP:  66; 6HR MAX TEMP:  74;

BUCKEYE          N/A     57  41  54 CALM      29.88R
LUKE AFB       NOT AVBL
6HR MIN TEMP:  59; 6HR MAX TEMP:  69;

DEER VALLEY    CLEAR     64  39  39 NE5       29.88R
6HR MIN TEMP:  61; 6HR MAX TEMP:  69;

SCOTTSDALE     PTCLDY    63  43  48 CALM      29.89S
6HR MIN TEMP:  63; 6HR MAX TEMP:  70;

MESA-GATEWAY   PTCLDY    61  45  55 SE3       29.90S
$$

AZZ027-028-191300-
SOUTHWEST MARICOPA COUNTY AND PINAL COUNTY

CITY           SKY/WX    TMP DP  RH WIND       PRES   REMARKS
CASA GRANDE    CLOUDY    63  41  45 CALM      29.90S
6HR MIN TEMP:  61; 6HR MAX TEMP:  70;

$$

AZZ503-504-507>509-191300-
SOUTHEAST ARIZONA

CITY           SKY/WX    TMP DP  RH WIND       PRES   REMARKS
TUCSON         MOCLDY    60  42  51 SE3       29.94F
6HR MIN TEMP:  60; 6HR MAX TEMP:  68; 6HR PCP: TRACE;

DAVIS-MONTHAN  CLOUDY    60  46  59 CALM      29.93F
6HR MIN TEMP:  60; 6HR MAX TEMP:  65; 6HR PCP: TRACE;

NOGALES        PTCLDY    51  42  71 N3        29.97S
6HR MIN TEMP:  51; 6HR MAX TEMP:  59;

SIERRA VISTA   CLOUDY    53  45  74 SE5       30.01F
6HR MIN TEMP:  53; 6HR MAX TEMP:  57;

DOUGLAS        CLOUDY    48  45  89 N3        30.01F
6HR MIN TEMP:  47; 6HR MAX TEMP:  53; 6HR PCP: TRACE;

SAFFORD        CLOUDY    55  48  77 SE6       30.00R
6HR MIN TEMP:  52; 6HR MAX TEMP:  58;

$$

AZZ020-021-025-026-031-191300-
SOUTHWEST ARIZONA

CITY           SKY/WX    TMP DP  RH WIND       PRES   REMARKS
YUMA           CLEAR     68  46  45 NE8       29.83R
6HR MIN TEMP:  66; 6HR MAX TEMP:  71;

$$

CAZ031-033-041-043-047-048-061-191300-
SOUTHERN CALIFORNIA

CITY           SKY/WX    TMP DP  RH WIND       PRES   REMARKS
DOWNTOWN L.A.  CLEAR     59  53  80 CALM      29.95R
6HR MIN TEMP:  59; 6HR MAX TEMP:  63;

L.A. AIRPORT   PTCLDY    58  54  86 W6        29.96R
6HR MIN TEMP:  58; 6HR MAX TEMP:  62;

SAN DIEGO      CLOUDY    64  51  62 CALM      29.94F
6HR MIN TEMP:  63; 6HR MAX TEMP:  65;

BURBANK        CLEAR     55  48  77 CALM      29.95R
6HR MIN TEMP:  55; 6HR MAX TEMP:  61;

ONTARIO        PTCLDY    56  50  80 CALM      29.93F
6HR MIN TEMP:  56; 6HR MAX TEMP:  61;

RIVERSIDE      CLEAR     53  49  86 E3        29.94F
6HR MIN TEMP:  53; 6HR MAX TEMP:  60;

PALM SPRINGS   CLEAR     65  51  60 CALM      29.89S
6HR MIN TEMP:  65; 6HR MAX TEMP:  72;

EL CENTRO NAS  MOCLDY    63  50  62 CALM      29.83S
6HR MIN TEMP:  60; 6HR MAX TEMP:  71;

IMPERIAL       MOCLDY    61  51  70 CALM      29.83R
6HR MIN TEMP:  60; 6HR MAX TEMP:  74;

BLYTHE         CLOUDY    70  47  43 N5        29.86S
6HR MIN TEMP:  70; 6HR MAX TEMP:  73;

NEEDLES        CLOUDY    71  46  40 CALM      29.89S
6HR MIN TEMP:  71; 6HR MAX TEMP:  75;

$$

NVZ020-UTZ003-191300-
SOUTHERN NEVADA-UTAH

CITY           SKY/WX    TMP DP  RH WIND       PRES   REMARKS
LAS VEGAS      PTCLDY    66  39  37 S10       29.89R
6HR MIN TEMP:  66; 6HR MAX TEMP:  74;

SALT LAKE CITY PTCLDY    46  43  89 CALM      29.98S
6HR MIN TEMP:  46; 6HR MAX TEMP:  51;

$$

NMZ009-TXZ055-191300-
NEW MEXICO-WEST TEXAS

CITY           SKY/WX    TMP DP  RH WIND       PRES   REMARKS
ALBUQUERQUE    PTCLDY    54  39  57 CALM      30.10R
6HR MIN TEMP:  52; 6HR MAX TEMP:  60; 6HR PCP: TRACE;

EL PASO        LGT RAIN  63  49  60 E5        30.00R
6HR MIN TEMP:  62; 6HR MAX TEMP:  72; 6HR PCP: TRACE;

$$


........................KEY........................
SKY/WX - SKY CONDITION/WEATHER
TMP    - TEMPERATURE IN FAHRENHEIT
DP     - DEW POINT IN FAHRENHEIT
RH     - RELATIVE HUMIDITY IN PERCENT
WIND   - DIRECTION AND SPEED IN MILES PER HOUR (MPH)
VRB    - VARIABLE WIND DIRECTION
PRES   - MEAN SEA LEVEL PRESSURE IN INCHES OF MERCURY
         F - FALLING PRESSURE   R - RISING PRESSURE
         S - STEADY PRESSURE
VSB    - VISIBILITY IN MILES
HX     - HEAT INDEX IN FAHRENHEIT
WCI    - WIND CHILL INDEX IN FAHRENHEIT
TC     - TEMPERATURE IN CELSIUS WHICH IS ALSO KNOWN AS
         TEMPERATURE IN CENTIGRADE
AFB    - AIR FORCE BASE
         LUKE AFB IS LUKE AIR FORCE BASE
         DAVIS-MONTHAN IS DAVIS-MONTHAN AIR FORCE BASE
NAS    - NAVAL AIR STATION
         EL CENTRO NAS IS EL CENTRO NAVAL AIR STATION
N/A    - NOT AVAILABLE



USA.gov is the U.S. government's official web portal to all federal, state and local government web resources and services.